Regional Weather Roundup
Issued by NWS Sterling, VA

Home | Current Version | Previous Version | Graphics & Text | Print | Product List | Glossary On
Versions: 1 2 3 4 5 6 7 8 9 10 11 12 13 14 15 16 17 18 19 20 21 22 23 24 25 26 27 28 29 30 31 32 33 34 35 36 37 38 39 40 41 42 43 44 45 46 47 48 49 50
000
ASUS41 KLWX 230410
RWRLWX

REGIONAL WEATHER ROUNDUP
NATIONAL WEATHER SERVICE BALTIMORE MD/WASHINGTON DC
1200 AM EDT SAT AUG 23 2014

Note: "FAIR" indicates few or no clouds below 12,000 feet
with no significant weather and/or obstructions to visibility.
 TC=TEMPERATURE CELSIUS

 * =Non NWS site. Station does not report precipitation (e.g. rain,
    snow, etc.), thunder, or fog.

DCZ001-MDZ009-015-VAZ040>042-051-053>054-230500-
WASHINGTON METRO
  /KDAA//-FT BELVOIR

CITY           SKY/WX    TMP DP  RH WIND       PRES   REMARKS
WASHINGTON NAT CLOUDY    76  68  76 E5        30.02R
DULLES         MOCLDY    72  68  87 SE6       30.01R
ANDREWS AFB    PTCLDY    71  69  96 NE3       30.01S
QUANTICO       CLOUDY    75  70  84 E5        30.01R
COLLEGE PARK*  MOCLDY    72  70  94 CALM      30.01R
LEESBURG*      CLOUDY    73  72  94 SE3       30.02R
MANASSAS*      MOCLDY    73  73 100 CALM      30.00S
GAITHERSBURG*  CLOUDY    70  68  94 E5        30.05S

$$

MDZ006>007-011-014-230500-
BALTIMORE METRO

CITY           SKY/WX    TMP DP  RH WIND       PRES   REMARKS
BWI AIRPORT    MOCLDY    72  67  84 E7        30.02R
MD SCIENCE CTR   N/A     74  66  76 MISG      30.02S
MARTIN STATE   PTCLDY    72  68  88 E6        30.04R
ANNAPOLIS        N/A     73  67  81 E10       30.01S
FORT MEADE*    CLEAR     68  64  88 E7        30.03F

$$

MDZ012-015-019>023-230500-
MARYLAND EASTERN SHORE

CITY           SKY/WX    TMP DP  RH WIND       PRES   REMARKS
OCEAN CITY     PTCLDY    73  67  81 NE7       30.00R
SALISBURY      PTCLDY    71  66  84 CALM      30.00S
BAY BRIDGE AP*   N/A     72  64  78 E5        30.02S
CAMBRIDGE*     CLEAR     70  66  88 NE3       30.00S
EASTON*        CLEAR     71  70  96 CALM      30.05S

$$

MDZ017>025-230500-
SOUTHERN MARYLAND

CITY           SKY/WX    TMP DP  RH WIND       PRES   REMARKS
PATUXENT RIVER CLOUDY    73  68  84 E9        30.00R
ST INIGOES     CLOUDY    74  67  78 E5        30.00R
LEONARDTOWN*   MOCLDY    72  66  83 E3        30.02R

$$

MDZ003>005-230500-
NORTH CENTRAL MARYLAND

CITY           SKY/WX    TMP DP  RH WIND       PRES   REMARKS
FREDERICK*     RAIN      72  72 100 CALM      30.04R
HAGERSTOWN APT CLOUDY    73  67  81 SE5       30.01S
WESTMINSTER*   CLOUDY    72  68  88 SE6       30.03S

$$

MDZ501>502-230500-
WESTERN MARYLAND

CITY           SKY/WX    TMP DP  RH WIND       PRES   REMARKS
OAKLAND*       CLOUDY    64 N/A N/A CALM      30.09S FOG
CUMBERLAND*    CLOUDY    72  70  94 CALM      30.04S

$$

VAZ025>031-230500-
SHENANDOAH VALLEY

CITY           SKY/WX    TMP DP  RH WIND       PRES   REMARKS
WINCHESTER*    CLOUDY    72  70  94 E5        30.00F
STAUNTON*      CLOUDY    73  70  89 CALM      30.03S

$$

WVZ021-048>050-054>055-230500-
EASTERN WEST VIRGINIA PANHANDLE

CITY           SKY/WX    TMP DP  RH WIND       PRES   REMARKS
MARTINSBURG    CLOUDY    73  67  81 E3        30.01R
PETERSBURG*    NOT AVBL

$$

VAZ036>039-050-230500-
CENTRAL FOOTHILLS

CITY           SKY/WX    TMP DP  RH WIND       PRES   REMARKS
CHARLOTTESVILL HVY RAIN  72  70  93 N5        30.00R FOG
ORANGE*        CLOUDY    72  70  94 CALM      30.01S

$$

VAZ055>057-230500-
NORTH AND CENTRAL PIEDMONT

CITY           SKY/WX    TMP DP  RH WIND       PRES   REMARKS
FREDERICKSBRG* PTCLDY    73  73 100 CALM      29.99R
STAFFORD*      PTCLDY    73  73 100 E3        30.04S

$$

NCZ024-NYZ072-PAZ021-071-VAZ022-071-230500-
OTHER REGIONAL OBSERVATIONS

CITY           SKY/WX    TMP DP  RH WIND       PRES   REMARKS
NEW YORK CITY  CLOUDY    70  55  59 VRB6      30.08S
PHILADELPHIA   CLOUDY    70  62  76 NE6       30.04S
PITTSBURGH     CLOUDY    70  69  97 W3        30.00S
ROANOKE        CLOUDY    74  70  87 W3        30.03S
RICHMOND       CLOUDY    74  70  87 NE3       29.99R
RALEIGH        MOCLDY    80  72  76 VRB3      29.98R

$$

ANZ530>537-230500-
MARINE OBSERVATIONS

STATION/POSITION TIME  TEMP    WIND        PRES
                       AIR SEA DIR/SP/G
                 (UTC) (F)     (DEG/KT/KT) (MB)
THOMAS PT LIGHT  0400   73 78  100/ 13/ 14 1016.7R
BALT KEY BRIDGE  0400   74     100/ 10/ 12 1016.2R
COVE POINT       0400   72     120/  9/ 10 1015.9S
LEWISETTA        0400   75 80  100/ 15/ 17 1015.2S
SOLOMONS ISLAND  0400      79                N/A
PINEY POINT      0400           90/ 10/ 13   N/A

$$



USA.gov is the U.S. government's official web portal to all federal, state and local government web resources and services.